Regional Weather Roundup
Issued by NWS

Home | Current Version | Previous Version | Graphics & Text | Print | Product List | Glossary On
Versions: 1 2 3 4 5 6 7 8 9 10 11 12 13 14 15 16 17 18 19 20 21 22 23 24 25 26 27 28 29 30 31 32 33 34 35 36 37 38 39 40 41 42 43 44 45 46 47 48 49 50
000
ASUS43 KOAX 192310
RWRNE

WEATHER ROUNDUP FOR NEBRASKA
NATIONAL WEATHER SERVICE OMAHA NE
500 PM CST FRI DEC 19 2014

NOTES: SATELLITE DATA IS BEING USED TO AUGMENT CLOUD COVER ABOVE
       12000 FEET.
       "FAIR" INDICATES FEW OR NO CLOUDS BELOW 12,000 FEET WITH NO
       SIGNIFICANT WEATHER AND/OR OBSTRUCTIONS TO VISIBILITY.

  * THESE STATIONS DO NOT REPORT WEATHER SUCH AS RAIN...SNOW OR FOG.

NEZ001>004-019>022-054>056-200000-
NEBRASKA PANHANDLE

CITY           SKY/WX    TMP DP  RH WIND       PRES   REMARKS
SCOTTSBLUFF    CLEAR     33  24  69 W7        29.98S WCI  27
ALLIANCE       CLEAR     32  25  75 W7        29.97R WCI  26
CHADRON        CLEAR     36  24  62 SE5       29.97R WCI  32
KIMBALL        CLEAR     40  21  47 NW10      29.98R WCI  33
SIDNEY         CLEAR     37  25  61 NW7       30.00S WCI  32
$$

NEZ057>060-069>072-079>082-200000-
SOUTHWEST NEBRASKA

CITY           SKY/WX    TMP DP  RH WIND       PRES   REMARKS
NORTH PLATTE   CLEAR     37  27  67 W9        30.00F WCI  30
IMPERIAL       CLEAR     39  28  64 W7        30.02S WCI  34
LEXINGTON      CLEAR     34  29  83 S3        30.03S
MCCOOK         CLEAR     45  25  45 W6        30.03S
OGALLALA       CLEAR     33  28  84 W8        30.01S WCI  25
$$

NEZ005>010-023>029-035>040-094-200000-
NORTH CENTRAL NEBRASKA

CITY           SKY/WX    TMP DP  RH WIND       PRES   REMARKS
VALENTINE      CLEAR     36  24  62 W6        29.97R WCI  31
AINSWORTH      CLEAR     27  24  89 S5        29.97S WCI  22
BROKEN BOW     CLEAR     33  29  85 S8        30.00S WCI  26
O`NEILL        CLOUDY    28  28 100 S7        30.02F FOG     WCI  21
THEDFORD       CLEAR     38  30  71 SW3       29.98R
$$

NEZ041-046>049-061>064-073>077-083>087-200000-
SOUTH CENTRAL NEBRASKA

CITY           SKY/WX    TMP DP  RH WIND       PRES   REMARKS
GRAND ISLAND   CLOUDY    35  31  85 S8        30.07S WCI  29
AURORA         CLOUDY    34  32  92 S9        30.08S WCI  26
HASTINGS       MOCLDY    34  31  88 S10       30.06S FOG     WCI  26
HEBRON         CLOUDY    33  30  88 S6        30.12S FOG     WCI  28
HOLDREGE       CLEAR     32  30  92 S5        30.04F WCI  27
KEARNEY *      MOCLDY    30  28  93 S7        30.05F WCI  23
YORK           CLOUDY    32  32 100 SW10      30.10S FOG     WCI  24
$$

NEZ011>018-030>034-042>045-200000-
NORTHEAST NEBRASKA

CITY           SKY/WX    TMP DP  RH WIND       PRES   REMARKS
NORFOLK        CLOUDY    33  29  85 S13       30.08S WCI  24
ALBION         CLOUDY    31  28  90 SW6       30.08R FOG     WCI  25
BLAIR          CLOUDY    33  28  83 S9        30.13S WCI  25
COLUMBUS *     CLOUDY    34  27  75 SW9       30.11S WCI  26
FREMONT        CLOUDY    34  30  85 SE7       30.13F WCI  28
TEKAMAH        CLOUDY    34  28  79 S13       30.15S WCI  25
WAYNE          CLOUDY    32  29  88 S12       30.11S WCI  23
$$

NEZ050>053-065>068-078-088>093-200000-
SOUTHEAST NEBRASKA

CITY           SKY/WX    TMP DP  RH WIND       PRES   REMARKS
LINCOLN        CLOUDY    34  29  82 S9        30.14S WCI  27
OMAHA EPPLEY   DRIZZLE   32  29  88 S9        30.17F FOG     WCI  24
BEATRICE       CLOUDY    32  30  92 S8        30.14S WCI  25
FALLS CITY     CLOUDY    31  27  85 S6        30.19S WCI  25
NEBRASKA CITY  CLOUDY    31  31  99 S8        30.16F FOG     WCI  23
PLATTSMOUTH    CLOUDY    31  28  90 SE7       30.16S FOG     WCI  24
$$

NEZ044-045-051>053-067-200000-
OMAHA AREA

CITY           SKY/WX    TMP DP  RH WIND       PRES   REMARKS
OMAHA EPPLEY   DRIZZLE   32  29  88 S9        30.17F FOG     WCI  24
BLAIR          CLOUDY    33  28  83 S9        30.13S WCI  25
FREMONT        CLOUDY    34  30  85 SE7       30.13F WCI  28
MILLARD        CLOUDY    33  29  83 SE7       30.15F WCI  27
OFFUTT AFB     CLOUDY    32  30  93 SE9       30.16S WCI  24
PLATTSMOUTH    CLOUDY    31  28  90 SE7       30.16S FOG     WCI  24
WAHOO          CLOUDY    34  29  82 S10       30.13S WCI  26
$$


USA.gov is the U.S. government's official web portal to all federal, state and local government web resources and services.